DAL5717 KLGA-KDCA

Flight info

Callsign DAL5717
Flight time 0h 49m
Altitude 28000
Route BIGGY Q75 MXE CLIPR3
Aircraft A320/M-SDE3FGHIRWY/LB1

Departure

Time 2026-05-06 01:19
Airport LaGuardia Airport (KLGA)

Arrival

Time 2026-05-06 02:08
Airport Ronald Reagan Washington National Airport (KDCA)
Time Latitude Longitude Altitude Speed Heading
2026-05-06 00:53 40.77288 -73.86557 20 ft 0 kts 134°
2026-05-06 01:07 40.77288 -73.86558 20 ft 1 kts 134°
2026-05-06 01:07 40.77304 -73.86580 21 ft 4 kts 134°
2026-05-06 01:07 40.77319 -73.86601 21 ft 4 kts 115°
2026-05-06 01:07 40.77317 -73.86624 22 ft 4 kts 45°
2026-05-06 01:08 40.77299 -73.86648 22 ft 4 kts 43°
2026-05-06 01:08 40.77283 -73.86667 22 ft 4 kts 43°
2026-05-06 01:08 40.77276 -73.86676 22 ft 0 kts 43°
2026-05-06 01:13 40.77308 -73.86637 21 ft 15 kts 41°
2026-05-06 01:14 40.77441 -73.86572 12 ft 12 kts 343°
2026-05-06 01:14 40.77512 -73.86588 12 ft 9 kts 316°
2026-05-06 01:14 40.77572 -73.86711 12 ft 16 kts 302°
2026-05-06 01:15 40.77629 -73.86831 12 ft 15 kts 302°
2026-05-06 01:15 40.77679 -73.86935 12 ft 12 kts 289°
2026-05-06 01:15 40.77680 -73.86939 13 ft 0 kts 290°
2026-05-06 01:15 40.77689 -73.86958 13 ft 9 kts 301°
2026-05-06 01:16 40.77728 -73.87037 13 ft 11 kts 302°
2026-05-06 01:16 40.77764 -73.87113 14 ft 9 kts 302°
2026-05-06 01:16 40.77795 -73.87178 14 ft 8 kts 302°
2026-05-06 01:16 40.77849 -73.87291 14 ft 16 kts 303°
2026-05-06 01:17 40.77905 -73.87407 15 ft 14 kts 302°
2026-05-06 01:17 40.77968 -73.87543 16 ft 19 kts 303°
2026-05-06 01:17 40.78038 -73.87686 17 ft 18 kts 302°
2026-05-06 01:17 40.78094 -73.87802 18 ft 11 kts 300°
2026-05-06 01:18 40.78143 -73.87863 18 ft 9 kts 340°
2026-05-06 01:18 40.78194 -73.87862 19 ft 6 kts 26°
2026-05-06 01:18 40.78196 -73.87778 18 ft 17 kts 125°
2026-05-06 01:18 40.78065 -73.87511 15 ft 64 kts 122°
2026-05-06 01:19 40.77712 -73.86766 14 ft 127 kts 120°
2026-05-06 01:19 40.77152 -73.85627 155 ft 152 kts 126°
2026-05-06 01:19 40.76549 -73.84514 714 ft 150 kts 144°
2026-05-06 01:19 40.75634 -73.83901 1129 ft 151 kts 174°
2026-05-06 01:20 40.74659 -73.83623 1838 ft 139 kts 179°
2026-05-06 01:20 40.73673 -73.83328 2234 ft 153 kts 178°
2026-05-06 01:20 40.72577 -73.83003 2647 ft 170 kts 178°
2026-05-06 01:20 40.71395 -73.82994 3046 ft 172 kts 204°
2026-05-06 01:21 40.70390 -73.83888 3452 ft 184 kts 230°
2026-05-06 01:21 40.69529 -73.85228 4037 ft 197 kts 230°
2026-05-06 01:21 40.68631 -73.86603 4796 ft 202 kts 232°
2026-05-06 01:21 40.67728 -73.88036 5559 ft 205 kts 240°
2026-05-06 01:22 40.67369 -73.89832 6330 ft 209 kts 272°
2026-05-06 01:22 40.67897 -73.91711 6884 ft 230 kts 294°
2026-05-06 01:22 40.68740 -73.93597 7377 ft 248 kts 296°
2026-05-06 01:22 40.69658 -73.95607 7952 ft 262 kts 297°
2026-05-06 01:23 40.70816 -73.97480 8714 ft 273 kts 313°
2026-05-06 01:23 40.72340 -73.99031 9542 ft 279 kts 318°
2026-05-06 01:23 40.73899 -74.00583 10298 ft 284 kts 318°
2026-05-06 01:23 40.75509 -74.02214 10754 ft 300 kts 317°
2026-05-06 01:24 40.77216 -74.03960 11167 ft 318 kts 317°
2026-05-06 01:24 40.79001 -74.05789 11547 ft 332 kts 318°
2026-05-06 01:24 40.80847 -74.07673 11907 ft 337 kts 318°
2026-05-06 01:24 40.82706 -74.09562 11978 ft 337 kts 318°
2026-05-06 01:25 40.84540 -74.11422 11990 ft 336 kts 318°
2026-05-06 01:25 40.86391 -74.13311 12138 ft 334 kts 316°
2026-05-06 01:25 40.87906 -74.15603 12790 ft 330 kts 297°
2026-05-06 01:25 40.88753 -74.18396 13520 ft 328 kts 279°
2026-05-06 01:26 40.88834 -74.21393 14135 ft 329 kts 260°
2026-05-06 01:26 40.88114 -74.24269 14745 ft 331 kts 241°
2026-05-06 01:26 40.86758 -74.26702 15344 ft 335 kts 231°
2026-05-06 01:26 40.85261 -74.29071 15973 ft 337 kts 231°
2026-05-06 01:27 40.83748 -74.31468 16618 ft 339 kts 231°
2026-05-06 01:27 40.82230 -74.33881 17266 ft 342 kts 231°
2026-05-06 01:27 40.80720 -74.36277 17872 ft 344 kts 231°
2026-05-06 01:27 40.79183 -74.38717 18460 ft 346 kts 231°
2026-05-06 01:28 40.77640 -74.41168 18988 ft 349 kts 231°
2026-05-06 01:28 40.76082 -74.43640 19517 ft 351 kts 231°
2026-05-06 01:28 40.74513 -74.46123 20055 ft 353 kts 231°
2026-05-06 01:28 40.72933 -74.48622 20572 ft 356 kts 231°
2026-05-06 01:29 40.71339 -74.51143 21121 ft 358 kts 231°
2026-05-06 01:29 40.69735 -74.53678 21630 ft 360 kts 231°
2026-05-06 01:29 40.68151 -74.56184 21838 ft 361 kts 231°
2026-05-06 01:29 40.66564 -74.58694 21874 ft 351 kts 231°
2026-05-06 01:30 40.65000 -74.61166 21878 ft 350 kts 231°
2026-05-06 01:30 40.63435 -74.63636 21877 ft 350 kts 231°
2026-05-06 01:30 40.61876 -74.66091 21873 ft 350 kts 231°
2026-05-06 01:30 40.60329 -74.68525 21876 ft 350 kts 231°
2026-05-06 01:31 40.58762 -74.70991 21881 ft 350 kts 231°
2026-05-06 01:31 40.57197 -74.73446 21879 ft 350 kts 230°
2026-05-06 01:31 40.55633 -74.75898 21880 ft 349 kts 230°
2026-05-06 01:31 40.54089 -74.78315 21879 ft 349 kts 230°
2026-05-06 01:32 40.52520 -74.80764 21876 ft 349 kts 230°
2026-05-06 01:32 40.50957 -74.83205 21878 ft 349 kts 230°
2026-05-06 01:32 40.49391 -74.85656 21874 ft 349 kts 230°
2026-05-06 01:32 40.47828 -74.88102 21902 ft 349 kts 230°
2026-05-06 01:33 40.46287 -74.90510 21902 ft 349 kts 230°
2026-05-06 01:33 40.44724 -74.92954 21904 ft 349 kts 230°
2026-05-06 01:33 40.43160 -74.95394 21918 ft 349 kts 230°
2026-05-06 01:33 40.41590 -74.97829 21917 ft 348 kts 230°
2026-05-06 01:34 40.39978 -75.00202 21922 ft 348 kts 228°
2026-05-06 01:34 40.38320 -75.02536 21922 ft 348 kts 227°
2026-05-06 01:34 40.36668 -75.04817 21912 ft 348 kts 227°
2026-05-06 01:34 40.34998 -75.07116 21920 ft 348 kts 227°
2026-05-06 01:35 40.33328 -75.09421 21907 ft 348 kts 227°
2026-05-06 01:35 40.31661 -75.11735 21904 ft 348 kts 227°
2026-05-06 01:35 40.30002 -75.14050 21904 ft 348 kts 227°
2026-05-06 01:35 40.28373 -75.16330 21817 ft 345 kts 227°
2026-05-06 01:36 40.26757 -75.18593 21574 ft 334 kts 227°
2026-05-06 01:36 40.25186 -75.20791 21329 ft 326 kts 228°
2026-05-06 01:36 40.23636 -75.22957 21092 ft 325 kts 227°
2026-05-06 01:36 40.22091 -75.25113 20839 ft 324 kts 227°
2026-05-06 01:37 40.20549 -75.27265 20583 ft 323 kts 228°
2026-05-06 01:37 40.19031 -75.29381 20353 ft 322 kts 228°
2026-05-06 01:37 40.17499 -75.31519 20104 ft 321 kts 228°
2026-05-06 01:37 40.15971 -75.33645 19932 ft 320 kts 228°
2026-05-06 01:38 40.14442 -75.35769 19919 ft 321 kts 228°
2026-05-06 01:38 40.12906 -75.37898 19927 ft 321 kts 228°
2026-05-06 01:38 40.11397 -75.39992 19925 ft 320 kts 228°
2026-05-06 01:38 40.09869 -75.42112 19923 ft 320 kts 228°
2026-05-06 01:39 40.08339 -75.44236 19921 ft 320 kts 228°
2026-05-06 01:39 40.06817 -75.46355 19930 ft 320 kts 228°
2026-05-06 01:39 40.05286 -75.48484 19934 ft 320 kts 228°
2026-05-06 01:39 40.03774 -75.50581 19936 ft 320 kts 228°
2026-05-06 01:40 40.02247 -75.52695 19932 ft 320 kts 228°
2026-05-06 01:40 40.00711 -75.54815 19932 ft 320 kts 228°
2026-05-06 01:40 39.99182 -75.56925 19850 ft 320 kts 228°
2026-05-06 01:40 39.97648 -75.59037 19606 ft 319 kts 228°
2026-05-06 01:41 39.96141 -75.61112 19377 ft 318 kts 228°
2026-05-06 01:41 39.94621 -75.63204 19140 ft 317 kts 228°
2026-05-06 01:41 39.93103 -75.65292 18901 ft 317 kts 228°
2026-05-06 01:41 39.91663 -75.67411 18667 ft 315 kts 233°
2026-05-06 01:42 39.90416 -75.69749 18433 ft 313 kts 236°
2026-05-06 01:42 39.89199 -75.72103 18173 ft 312 kts 236°
2026-05-06 01:42 39.87983 -75.74446 17914 ft 311 kts 236°
2026-05-06 01:42 39.86768 -75.76781 17651 ft 310 kts 236°
2026-05-06 01:43 39.85557 -75.79105 17381 ft 309 kts 236°
2026-05-06 01:43 39.84359 -75.81393 17122 ft 309 kts 236°
2026-05-06 01:43 39.83142 -75.83723 16863 ft 307 kts 236°
2026-05-06 01:43 39.81958 -75.85992 16608 ft 306 kts 236°
2026-05-06 01:44 39.80761 -75.88284 16352 ft 306 kts 236°
2026-05-06 01:44 39.79563 -75.90574 16096 ft 305 kts 236°
2026-05-06 01:44 39.78371 -75.92849 15849 ft 304 kts 236°
2026-05-06 01:44 39.77175 -75.95126 15594 ft 303 kts 236°
2026-05-06 01:45 39.75998 -75.97364 15346 ft 303 kts 236°
2026-05-06 01:45 39.74813 -75.99620 15102 ft 302 kts 236°
2026-05-06 01:45 39.73632 -76.01873 14858 ft 302 kts 236°
2026-05-06 01:45 39.72451 -76.04123 14618 ft 301 kts 236°
2026-05-06 01:46 39.71273 -76.06366 14374 ft 300 kts 236°
2026-05-06 01:46 39.70095 -76.08607 14143 ft 299 kts 236°
2026-05-06 01:46 39.68937 -76.10807 13903 ft 298 kts 236°
2026-05-06 01:46 39.67764 -76.13032 13663 ft 298 kts 236°
2026-05-06 01:47 39.66591 -76.15259 13402 ft 297 kts 236°
2026-05-06 01:47 39.65438 -76.17445 13140 ft 296 kts 236°
2026-05-06 01:47 39.64271 -76.19658 12880 ft 296 kts 236°
2026-05-06 01:47 39.63108 -76.21858 12622 ft 295 kts 236°
2026-05-06 01:48 39.61963 -76.24026 12377 ft 294 kts 236°
2026-05-06 01:48 39.60810 -76.26202 12120 ft 293 kts 236°
2026-05-06 01:48 39.59655 -76.28374 11904 ft 291 kts 235°
2026-05-06 01:48 39.58301 -76.30344 12009 ft 295 kts 223°
2026-05-06 01:49 39.56641 -76.31925 12013 ft 296 kts 216°
2026-05-06 01:49 39.54921 -76.33410 12018 ft 296 kts 216°
2026-05-06 01:49 39.53221 -76.34882 12015 ft 296 kts 216°
2026-05-06 01:49 39.51504 -76.36370 12031 ft 297 kts 216°
2026-05-06 01:50 39.49787 -76.37863 12026 ft 296 kts 216°
2026-05-06 01:50 39.48649 -76.38852 12022 ft 297 kts 216°
2026-05-06 01:50 39.46377 -76.40828 12036 ft 297 kts 216°
2026-05-06 01:50 39.45239 -76.41819 12032 ft 296 kts 216°
2026-05-06 01:51 39.42972 -76.43792 11913 ft 296 kts 216°
2026-05-06 01:51 39.41818 -76.44795 11831 ft 296 kts 216°
2026-05-06 01:51 39.40108 -76.46277 11715 ft 295 kts 216°
2026-05-06 01:51 39.37849 -76.48229 11521 ft 293 kts 216°
2026-05-06 01:52 39.36727 -76.49196 11263 ft 292 kts 216°
2026-05-06 01:52 39.35037 -76.50653 10840 ft 291 kts 216°
2026-05-06 01:52 39.33353 -76.52108 10424 ft 289 kts 216°
2026-05-06 01:52 39.31705 -76.53533 10102 ft 288 kts 216°
2026-05-06 01:53 39.30063 -76.54953 10044 ft 275 kts 216°
2026-05-06 01:53 39.28481 -76.56317 10047 ft 272 kts 216°
2026-05-06 01:53 39.26929 -76.57658 10005 ft 271 kts 216°
2026-05-06 01:53 39.25361 -76.59014 10008 ft 271 kts 216°
2026-05-06 01:54 39.23791 -76.60371 10006 ft 271 kts 216°
2026-05-06 01:54 39.22219 -76.61724 10008 ft 271 kts 216°
2026-05-06 01:54 39.20656 -76.63070 9840 ft 270 kts 216°
2026-05-06 01:54 39.19098 -76.64411 9450 ft 268 kts 216°
2026-05-06 01:55 39.17575 -76.65722 9082 ft 265 kts 216°
2026-05-06 01:55 39.16175 -76.67224 8717 ft 260 kts 224°
2026-05-06 01:55 39.14852 -76.68802 8338 ft 257 kts 224°
2026-05-06 01:55 39.13540 -76.70361 7962 ft 254 kts 224°
2026-05-06 01:56 39.12261 -76.71877 7636 ft 251 kts 224°
2026-05-06 01:56 39.10982 -76.73393 7279 ft 248 kts 223°
2026-05-06 01:56 39.09818 -76.74769 6934 ft 245 kts 223°
2026-05-06 01:56 39.08583 -76.76229 6587 ft 242 kts 223°
2026-05-06 01:57 39.07347 -76.77693 6191 ft 240 kts 223°
2026-05-06 01:57 39.06123 -76.79143 6039 ft 239 kts 223°
2026-05-06 01:57 39.04889 -76.80600 6040 ft 240 kts 223°
2026-05-06 01:57 39.03657 -76.82052 6047 ft 240 kts 223°
2026-05-06 01:58 39.02443 -76.83484 5925 ft 239 kts 223°
2026-05-06 01:58 39.01224 -76.84922 5503 ft 237 kts 223°
2026-05-06 01:58 39.00012 -76.86356 5054 ft 236 kts 223°
2026-05-06 01:58 38.98813 -76.87792 4631 ft 235 kts 226°
2026-05-06 01:59 38.97876 -76.89495 4225 ft 233 kts 241°
2026-05-06 01:59 38.97374 -76.91491 4024 ft 239 kts 256°
2026-05-06 01:59 38.97322 -76.93658 4025 ft 246 kts 267°
2026-05-06 01:59 38.97402 -76.95829 4027 ft 245 kts 266°
2026-05-06 02:00 38.97479 -76.98013 4028 ft 244 kts 266°
2026-05-06 02:00 38.97560 -77.00191 4027 ft 246 kts 269°
2026-05-06 02:00 38.97975 -77.02361 4024 ft 255 kts 287°
2026-05-06 02:00 38.98953 -77.04310 4024 ft 267 kts 305°
2026-05-06 02:01 39.00296 -77.05954 4034 ft 271 kts 309°
2026-05-06 02:01 39.01673 -77.07604 4037 ft 270 kts 309°
2026-05-06 02:01 39.03048 -77.09262 4033 ft 268 kts 309°
2026-05-06 02:01 39.04351 -77.10841 4029 ft 250 kts 308°
2026-05-06 02:02 39.05564 -77.12327 4038 ft 227 kts 302°
2026-05-06 02:02 39.06214 -77.13952 4037 ft 187 kts 268°
2026-05-06 02:02 39.06083 -77.15460 4035 ft 160 kts 239°
2026-05-06 02:02 39.05461 -77.16638 4035 ft 159 kts 219°
2026-05-06 02:03 39.04550 -77.17410 3971 ft 159 kts 205°
2026-05-06 02:03 39.03443 -77.17567 3725 ft 166 kts 177°
2026-05-06 02:03 39.02313 -77.17215 3435 ft 169 kts 174°
2026-05-06 02:03 39.01180 -77.16843 3141 ft 168 kts 174°
2026-05-06 02:04 39.00037 -77.16470 3027 ft 170 kts 174°
2026-05-06 02:04 38.98892 -77.16097 3013 ft 170 kts 174°
2026-05-06 02:04 38.97750 -77.15725 2930 ft 169 kts 175°
2026-05-06 02:04 38.96632 -77.15300 2855 ft 173 kts 164°
2026-05-06 02:05 38.95617 -77.14376 2652 ft 181 kts 150°
2026-05-06 02:05 38.94678 -77.13315 2366 ft 178 kts 149°
2026-05-06 02:05 38.93770 -77.12242 2096 ft 175 kts 150°
2026-05-06 02:05 38.92836 -77.11287 1895 ft 172 kts 155°
2026-05-06 02:06 38.91868 -77.10439 1672 ft 163 kts 157°
2026-05-06 02:06 38.91001 -77.09541 1426 ft 162 kts 135°
2026-05-06 02:06 38.90551 -77.08202 1237 ft 166 kts 115°
2026-05-06 02:06 38.90120 -77.06912 1015 ft 146 kts 134°
2026-05-06 02:07 38.89426 -77.06071 829 ft 138 kts 144°
2026-05-06 02:07 38.88729 -77.05214 682 ft 138 kts 139°
2026-05-06 02:07 38.88031 -77.04406 480 ft 132 kts 151°
2026-05-06 02:07 38.87171 -77.04004 352 ft 127 kts 171°
2026-05-06 02:08 38.86288 -77.03885 108 ft 129 kts 178°
2026-05-06 02:08 38.85465 -77.03812 28 ft 96 kts 174°
2026-05-06 02:08 38.85045 -77.03765 24 ft 44 kts 176°
2026-05-06 02:08 38.84879 -77.03843 24 ft 17 kts 268°
2026-05-06 02:09 38.84879 -77.03875 24 ft 0 kts 269°
2026-05-06 02:09 38.84879 -77.03876 24 ft 1 kts 269°
2026-05-06 02:09 38.84884 -77.03942 27 ft 11 kts 312°
2026-05-06 02:10 38.84951 -77.03957 24 ft 11 kts 355°
2026-05-06 02:10 38.85025 -77.03964 24 ft 10 kts 355°
2026-05-06 02:10 38.85103 -77.03973 24 ft 13 kts 353°
2026-05-06 02:10 38.85168 -77.03979 24 ft 11 kts 357°
2026-05-06 02:11 38.85259 -77.03988 24 ft 1 kts 355°
2026-05-06 02:11 38.85320 -77.03994 26 ft 20 kts 354°
2026-05-06 02:11 38.85444 -77.04007 28 ft 15 kts 355°
2026-05-06 02:11 38.85506 -77.04015 26 ft 0 kts 350°
2026-05-06 02:12 38.85528 -77.04025 26 ft 5 kts 328°
2026-05-06 02:12 38.85532 -77.04110 24 ft 15 kts 251°
2026-05-06 02:12 38.85504 -77.04226 24 ft 10 kts 252°
2026-05-06 02:13 38.85460 -77.04246 26 ft 5 kts 164°
2026-05-06 02:13 38.85446 -77.04239 26 ft 1 kts 164°
2026-05-06 02:13 38.85442 -77.04237 25 ft 0 kts 162°
2026-05-06 02:13 38.85441 -77.04237 26 ft 0 kts 162°
2026-05-06 02:15 38.85441 -77.04236 25 ft 0 kts 162°